Wind_Speed
20 20 20 19 18 17 18 20 20 21 20 19 19 19 18 19 19 20 21 22 21 23 22 20 18 17 16 16 18 19 19 20 21 20 20 19 18 19 18 17 14 16 16
23 21 21 20 19 17 18 18 19 19 19 18 18 19 19 19 19 20 21 21 20 20 20 18 16 15 14 12 15 17 18 19 20 17 18 21 19 17 16 16 15 15 15
24 22 21 20 18 18 18 18 19 18 18 18 18 18 18 18 18 19 18 18 19 18 17 15 13 13 12 10 14 16 18 19 21 21 17 16 18 21 22 19 18 17 18
24 23 20 20 19 18 18 19 18 18 18 18 18 18 18 19 18 18 16 16 16 16 14 13 12 12 13 14 19 18 19 20 20 14 19 17 19 23 22 20 19 20 20
23 22 20 21 19 18 18 18 17 17 17 18 18 19 18 18 18 16 15 14 14 14 13 12 13 13 15 18 21 20 21 22 18 18 17 18 19 20 20 20 21 20 20
22 21 20 21 19 18 17 17 17 18 17 17 17 18 18 18 17 16 14 13 13 13 13 13 14 15 17 19 20 20 21 18 18 18 20 21 23 23 23 23 23 24 24
23 20 20 20 19 17 16 17 17 18 17 17 17 16 16 16 16 14 13 13 13 13 13 14 15 16 17 19 20 21 19 20 17 18 19 19 19 20 21 22 23 23 23
23 22 20 19 17 16 16 18 18 18 17 16 16 16 15 15 15 14 13 13 14 13 14 15 16 18 19 19 21 20 18 20 19 21 20 20 21 22 21 22 22 21 21
22 22 21 18 16 16 16 17 17 17 16 16 16 15 15 15 15 14 14 13 13 14 14 16 18 18 19 19 20 19 21 22 20 19 19 19 20 22 22 21 21 21 21
21 22 22 20 18 16 15 17 17 17 17 16 16 16 15 15 14 13 11 13 14 14 14 16 18 18 17 17 19 22 21 22 21 19 19 19 20 21 21 21 21 21 21
21 22 21 20 19 17 16 16 17 17 17 17 16 17 14 11 10 10 11 12 13 15 16 17 19 18 21 21 21 21 17 17 18 18 18 20 21 21 21 21 21 21 21
22 20 20 19 19 18 16 17 15 15 14 12 12 11 10 10 9 10 11 12 14 16 17 18 19 18 15 14 15 16 17 18 21 19 19 20 20 21 21 21 21 21 21
26 23 20 21 19 18 17 16 15 14 13 11 11 10 10 9 10 9 11 14 16 16 15 18 11 10 11 10 10 11 12 13 16 18 19 20 20 20 20 21 20 20 20
28 26 21 18 18 16 15 15 13 12 11 11 9 9 9 8 7 7 8 10 13 11 13 11 12 13 14 13 13 13 13 13 16 18 18 20 21 20 20 20 21 20 20
31 29 23 20 19 16 15 14 13 12 11 10 9 7 6 6 7 7 6 7 11 12 13 14 15 15 15 15 15 15 16 16 16 16 18 23 22 21 19 20 20 19 19
30 28 26 23 19 18 15 14 13 12 11 9 7 6 6 7 8 7 7 8 13 13 12 15 17 15 16 16 16 15 15 15 16 15 14 16 20 19 19 20 20 19 19
28 28 27 25 20 19 16 15 12 10 9 8 7 7 7 7 8 8 9 9 10 12 16 19 15 16 16 17 17 15 14 16 16 14 11 13 14 15 18 19 19 19 19
27 24 26 25 22 20 17 14 12 10 9 8 7 7 7 8 9 9 9 9 11 13 15 14 15 16 17 16 16 15 14 13 12 12 10 9 10 10 14 17 19 19 19
25 23 25 24 23 20 17 14 12 11 8 7 7 7 7 8 7 8 9 10 13 13 13 14 14 14 17 17 15 14 12 11 10 8 10 9 10 10 10 13 17 19 19
26 25 24 24 22 20 18 15 12 10 8 7 6 7 7 7 7 8 10 13 14 15 15 15 16 15 15 16 15 12 11 10 7 6 7 7 8 10 10 11 11 13 19
26 29 25 25 23 23 19 18 14 12 10 8 7 8 7 7 8 9 11 15 15 17 18 20 20 20 18 17 16 10 10 8 6 5 5 5 6 8 9 10 11 12 12
36 29 27 26 25 22 20 17 14 13 10 9 9 8 8 8 8 8 11 14 16 17 19 20 21 20 17 16 9 8 5 6 4 3 4 4 5 5 7 9 11 12 12
35 38 31 28 26 23 20 17 16 12 12 11 10 9 7 8 8 8 10 12 15 16 18 19 20 20 17 13 10 2 3 2 8 4 3 3 3 3 5 7 9 11 12
31 32 32 28 27 23 21 19 19 15 15 12 12 10 8 8 8 8 9 12 14 14 16 18 16 15 14 12 11 3 1 2 2 4 4 2 2 2 4 5 7 10 12
33 33 30 28 28 24 21 18 18 14 12 15 13 12 9 8 8 8 9 10 12 13 14 15 16 14 13 9 9 5 2 1 1 3 2 5 3 2 2 4 7 9 11
29 30 33 30 27 25 22 19 17 17 17 17 15 12 10 9 8 8 9 9 9 10 13 13 14 13 11 9 8 5 5 5 4 3 1 2 1 4 2 3 6 8 9
Wind_Direction
160 157 161 160 157 148 141 135 132 131 130 129 127 124 121 117 117 114 113 111 109 106 104 98 94 92 91 92 90 89 88 88 87 84 83 77 73 71 78 82 71 68 70
153 156 160 162 157 150 147 142 134 132 130 127 125 122 120 117 117 116 114 112 111 108 105 100 94 89 87 93 100 94 93 90 85 81 76 68 66 65 67 72 78 66 66
150 155 155 161 156 151 149 145 139 136 131 127 125 122 121 120 118 117 115 112 111 107 104 99 93 83 77 84 117 108 98 93 84 80 73 69 66 64 64 65 64 65 65
149 153 157 161 157 153 150 145 143 134 133 130 128 126 123 122 121 119 115 110 108 105 103 97 87 81 76 85 126 115 99 88 78 64 67 69 66 63 61 60 62 62 60
149 152 159 159 157 154 149 143 133 132 134 131 129 127 124 123 122 122 117 110 105 103 100 95 88 85 87 106 119 108 94 82 77 71 71 69 68 63 64 70 65 65 65
150 152 159 156 155 153 148 143 139 138 135 131 129 127 126 125 123 123 117 110 105 100 96 96 99 99 97 108 112 102 90 87 77 76 75 70 67 65 65 66 65 61 58
150 149 151 154 152 149 147 146 143 141 135 131 131 128 126 124 122 119 114 110 105 100 99 102 102 105 108 111 108 100 98 89 84 79 73 67 64 63 63 64 61 57 54
147 147 149 150 146 147 149 149 148 146 141 136 134 132 127 122 118 115 112 106 103 101 102 104 104 108 111 112 110 109 103 94 87 80 73 68 71 71 67 66 63 60 57
144 146 147 147 147 152 150 149 147 144 141 139 136 131 126 123 120 118 113 109 106 103 105 106 107 111 115 115 113 110 105 93 85 81 74 70 69 69 66 62 63 61 58
140 145 150 152 151 150 150 153 148 144 140 136 132 130 129 124 120 115 109 117 114 114 113 115 114 114 118 118 113 106 94 83 78 75 71 73 71 69 68 65 61 59 56
141 149 154 157 157 157 155 153 147 145 143 140 137 135 121 131 125 112 133 117 119 118 119 120 120 122 117 110 103 88 87 82 80 77 75 77 73 71 67 65 62 58 56
149 156 158 158 161 160 158 152 151 149 145 146 144 141 143 141 135 135 128 127 127 123 122 119 119 104 99 101 85 86 91 87 84 80 80 80 77 73 68 61 57 55 52
160 163 164 162 164 165 163 163 160 158 156 154 154 155 154 150 145 147 141 134 130 124 122 115 100 102 96 97 93 93 94 90 88 86 84 81 77 72 67 60 54 50 48
167 169 170 169 166 171 165 166 160 158 160 160 162 162 162 153 148 146 157 152 141 136 130 117 110 108 100 95 94 94 94 96 97 95 90 87 79 70 64 59 51 45 44
172 169 171 172 171 168 164 163 159 155 153 158 153 152 152 145 148 140 142 132 151 131 131 124 118 111 102 99 94 92 93 97 101 101 98 90 83 72 64 56 50 45 45
174 173 167 170 173 167 168 164 157 152 148 146 147 152 137 140 139 139 131 128 142 137 134 129 123 109 107 99 96 96 94 96 99 100 101 93 86 74 62 54 50 46 46
177 174 165 165 172 168 168 160 154 148 145 148 149 137 140 140 139 141 137 133 139 140 140 129 122 120 113 108 101 94 91 97 99 101 100 95 80 68 59 52 49 47 46
175 179 163 165 172 168 167 157 154 147 143 144 145 142 138 141 144 144 148 149 148 144 139 137 132 128 121 117 111 105 102 96 96 98 93 88 86 68 42 40 49 47 46
175 171 166 165 169 165 162 153 149 143 137 141 141 144 145 146 149 155 155 155 151 153 149 144 138 134 129 124 120 115 108 104 95 95 90 83 79 69 53 21 25 34 42
167 167 166 168 167 160 156 151 147 141 135 139 141 147 139 149 150 151 158 157 157 155 150 144 139 135 133 126 118 111 110 105 107 100 91 89 79 67 53 42 35 19 20
164 167 173 170 169 163 161 161 156 151 144 143 143 137 136 148 146 151 157 161 163 163 159 152 145 141 134 135 120 121 101 104 109 102 104 96 80 62 50 40 34 30 21
174 174 178 179 173 172 169 165 161 152 145 149 145 139 141 141 143 152 161 167 168 164 156 153 150 144 145 155 149 138 148 140 116 123 117 106 84 64 48 40 37 27 24
180 178 182 180 176 175 171 160 148 145 144 149 149 141 142 138 141 148 153 164 168 169 164 161 163 158 161 177 179 292 183 100 152 145 133 115 97 68 52 39 30 25 23
178 178 183 179 177 177 171 165 163 162 161 162 152 153 141 133 138 151 151 159 168 174 172 171 174 176 168 177 184 213 305 64 277 166 170 153 125 88 57 37 22 20 24
178 177 179 178 177 176 173 170 168 162 157 154 150 147 142 139 141 146 153 158 174 179 179 182 182 187 187 191 199 189 217 250 301 295 160 162 184 158 71 33 29 22 23
173 176 173 176 177 175 172 174 171 164 162 159 155 152 155 149 146 146 151 157 160 175 178 186 193 192 195 204 208 221 256 291 307 261 257 167 183 163 128 40 29 24 25
Height
804 809 813 817 821 823 825 826 827 828 830 831 832 833 834 835 836 837 837 838 839 838 840 841 842 842 843 843 843 843 843 843 843 844 845 845 844 843 844 843 844 843 842
804 810 814 818 821 824 826 828 828 831 832 834 835 835 837 839 839 840 840 841 841 842 842 843 844 844 845 845 846 846 846 847 847 847 846 845 847 846 846 846 846 845 844
806 811 815 819 822 825 827 829 830 833 834 835 837 838 839 841 842 843 843 843 844 845 845 845 846 846 846 847 848 848 849 849 850 849 849 850 851 850 849 848 848 847 846
807 813 817 819 823 826 829 831 832 834 835 836 838 840 841 842 844 845 846 847 847 847 847 848 848 848 848 848 849 851 852 853 852 852 852 854 854 853 852 851 851 851 850
809 814 818 821 824 827 830 832 834 836 838 839 840 842 843 844 845 847 848 849 849 849 850 851 850 851 851 851 852 854 855 856 855 856 856 857 857 856 855 855 855 854 853
811 816 819 822 826 829 831 833 835 837 839 841 843 844 845 846 847 848 849 850 851 851 852 852 852 853 854 855 856 857 858 858 859 859 860 860 860 860 860 859 858 857 856
812 818 823 825 828 831 833 835 837 839 841 842 844 846 848 849 850 851 851 852 853 853 854 854 855 855 856 857 859 860 860 861 862 863 864 865 865 864 864 863 862 861 860
814 819 824 827 830 833 835 837 838 841 842 844 846 848 850 851 852 853 854 855 855 856 857 857 858 859 859 860 861 862 863 864 865 867 868 868 868 867 867 866 865 865 864
816 820 825 830 833 835 837 839 841 842 844 846 848 849 851 852 854 855 856 857 857 858 859 860 860 861 862 864 864 865 866 868 868 870 871 872 873 872 871 871 870 869 868
817 821 826 830 833 837 839 840 842 844 845 848 849 851 852 854 856 857 858 858 858 859 861 862 863 864 865 866 867 868 869 871 872 874 876 877 876 876 875 875 874 873 871
818 822 826 830 833 836 840 842 843 845 846 848 850 851 853 856 858 860 860 860 860 861 862 863 865 866 868 869 871 872 873 875 876 878 880 881 880 880 880 878 877 876 874
817 822 827 830 833 836 839 842 844 846 849 851 852 854 855 857 858 860 861 862 862 863 865 867 869 870 872 873 873 875 876 878 879 881 883 884 884 883 883 882 881 879 878
815 821 825 828 833 836 838 841 843 846 848 851 852 854 856 857 858 860 862 862 863 865 867 869 871 873 875 876 877 879 879 880 882 884 887 887 887 887 886 885 885 883 881
812 817 823 827 832 836 838 840 842 845 848 850 852 853 855 856 858 859 861 862 864 867 868 871 873 875 877 879 880 882 882 883 884 887 889 889 889 890 890 888 887 886 884
807 812 819 826 831 834 838 840 842 845 847 850 852 853 854 856 858 859 860 862 864 867 869 872 874 876 879 881 883 885 886 886 888 890 892 891 891 892 892 891 890 889 887
806 811 813 823 829 833 837 840 842 845 846 850 852 852 853 856 858 859 861 862 864 867 870 871 874 879 881 884 886 888 890 891 892 894 894 894 893 894 894 893 892 891 889
806 811 813 819 828 832 836 839 842 844 847 849 851 852 853 856 857 860 861 863 866 868 869 872 877 880 883 885 889 893 895 893 894 896 898 897 895 895 894 894 894 893 891
805 813 812 818 826 831 836 838 842 844 846 849 851 852 853 855 857 859 861 864 867 869 872 875 879 881 883 887 890 893 895 898 899 899 900 900 898 898 896 896 895 894 892
804 810 813 818 825 830 835 838 841 843 846 849 851 852 853 854 856 859 861 864 867 870 872 875 879 882 885 888 891 895 897 898 900 902 901 902 900 900 900 897 896 894 893
803 809 813 819 825 829 833 837 841 843 846 849 851 852 853 854 856 859 861 863 866 869 872 875 880 883 886 889 893 897 898 899 901 903 903 904 902 901 901 901 900 898 895
803 807 812 817 823 827 831 836 840 842 846 849 851 852 853 855 855 858 860 863 865 868 870 873 877 882 887 890 893 900 899 901 902 903 904 904 904 903 902 902 901 900 899
794 804 811 817 821 826 831 835 838 842 845 849 851 851 853 855 856 859 861 863 866 868 871 874 877 881 886 889 891 894 896 901 902 904 904 905 904 904 904 903 902 901 900
792 796 807 814 819 825 830 833 836 841 844 848 850 852 854 855 856 859 861 864 867 870 872 874 878 878 883 888 890 889 887 884 897 903 904 904 904 904 905 904 903 902 901
789 797 804 811 817 824 828 831 834 837 841 845 848 852 854 855 857 859 861 863 867 870 872 875 878 880 882 885 889 890 891 890 887 893 902 903 904 905 905 905 904 903 901
787 794 802 809 815 820 825 829 834 836 840 844 847 852 853 855 857 859 861 864 867 870 872 875 878 880 882 884 887 889 891 891 892 890 887 899 903 904 905 905 904 903 902
785 793 797 806 813 817 822 828 831 835 840 842 845 849 853 856 858 860 862 864 866 869 871 875 878 879 881 883 885 888 889 889 888 890 890 894 896 903 905 905 904 903 902